Index of /pmb/codes/nwprod/gfdl.v6.0.4/fix

[ICO]NameLast modifiedSizeDescription

[DIR]Parent Directory  -  
[   ]gfdl_ocean_dat17-Sep-2013 01:33 26  
[   ]gfdl_datainp117-Sep-2013 01:32 51  
[   ]gfdl_datainp1.l4217-Sep-2013 01:32 51  
[TXT]gfdl_tracker_tmp_levs.txt17-Sep-2013 01:33 60  
[   ]gfdl_limit_2nest_dat_y.117-Sep-2013 01:33 111  
[   ]gfdl_datainp217-Sep-2013 01:32 118  
[   ]gfdl_fildef.afos17-Sep-2013 01:32 118  
[   ]gfdl_huranal.data17-Sep-2013 01:32 118  
[   ]gfdl_fildef.sdm17-Sep-2013 01:32 128  
[TXT]gfdl_tracker_hgt_levs.txt17-Sep-2013 01:33 142  
[TXT]gfdl_disclaimer.txt17-Sep-2013 01:32 208  
[TXT]gfdl_tracker_leadtimes.txt17-Sep-2013 01:33 242  
[   ]gfdl_limit_2nest_dat_x.117-Sep-2013 01:33 259  
[TXT]global_siglevel.l64.txt17-Sep-2013 01:33 572  
[   ]gfdl_limit_2nest_dat_y.617-Sep-2013 01:33 666  
[   ]gfdl_limit_2nest_dat_x.517-Sep-2013 01:33 703  
[   ]gfdl_limit_2nest_dat_x.617-Sep-2013 01:33 814  
[   ]gfdl_limit_2nest_dat_y.1217-Sep-2013 01:33 1.4K 
[   ]gfdl_limit_2nest_dat_y.1517-Sep-2013 01:33 1.6K 
[   ]gfdl_ocean_spinup_gspath.0117-Sep-2013 01:33 1.7K 
[   ]gfdl_ocean_spinup_gspath.0217-Sep-2013 01:33 1.7K 
[   ]gfdl_ocean_spinup_gspath.0317-Sep-2013 01:33 1.7K 
[   ]gfdl_ocean_spinup_gspath.0417-Sep-2013 01:33 1.7K 
[   ]gfdl_ocean_spinup_gspath.0517-Sep-2013 01:33 1.7K 
[   ]gfdl_ocean_spinup_gspath.0617-Sep-2013 01:33 1.7K 
[   ]gfdl_ocean_spinup_gspath.0717-Sep-2013 01:33 1.7K 
[   ]gfdl_ocean_spinup_gspath.0817-Sep-2013 01:33 1.7K 
[   ]gfdl_ocean_spinup_gspath.0917-Sep-2013 01:33 1.7K 
[   ]gfdl_ocean_spinup_gspath.1017-Sep-2013 01:33 1.7K 
[   ]gfdl_ocean_spinup_gspath.1117-Sep-2013 01:33 1.7K 
[   ]gfdl_ocean_spinup_gspath.1217-Sep-2013 01:33 1.7K 
[   ]gfdl_limit_2nest_dat_y.1617-Sep-2013 01:33 1.7K 
[   ]gfdl_ocean_spinup.FSgsuf17-Sep-2013 01:33 2.4K 
[   ]gfdl_ocean_spinup.BAYuf17-Sep-2013 01:33 3.4K 
[   ]gfdl_ocean_spinup.SGYREuf17-Sep-2013 01:33 30K 
[   ]gfdl_fort.717-Sep-2013 01:32 48K 
[   ]gfdl_fort.7.l4217-Sep-2013 01:32 212K 
[   ]gfdl_Hdeepgsu.eastatl17-Sep-2013 01:32 490K 
[   ]gfdl_Hdeepgsu.united17-Sep-2013 01:32 793K 
[   ]gfdl_ocean_topo_and_mask.united17-Sep-2013 01:33 1.2M 
[   ]gfdl_ocean_topo_and_mask.eastatl_extn17-Sep-2013 01:33 2.4M 
[   ]gfdl_gdem.00.ascii17-Sep-2013 01:32 6.6M 
[   ]gfdl_gdem.01.ascii17-Sep-2013 01:32 6.6M 
[   ]gfdl_gdem.02.ascii17-Sep-2013 01:32 6.6M 
[   ]gfdl_gdem.03.ascii17-Sep-2013 01:32 6.6M 
[   ]gfdl_gdem.04.ascii17-Sep-2013 01:32 6.6M 
[   ]gfdl_gdem.05.ascii17-Sep-2013 01:32 6.6M 
[   ]gfdl_gdem.06.ascii17-Sep-2013 01:32 6.6M 
[   ]gfdl_gdem.07.ascii17-Sep-2013 01:32 6.6M 
[   ]gfdl_gdem.08.ascii17-Sep-2013 01:32 6.6M 
[   ]gfdl_gdem.09.ascii17-Sep-2013 01:32 6.6M 
[   ]gfdl_gdem.10.ascii17-Sep-2013 01:32 6.6M 
[   ]gfdl_gdem.11.ascii17-Sep-2013 01:32 6.6M 
[   ]gfdl_gdem.12.ascii17-Sep-2013 01:32 6.6M 
[   ]gfdl_gdem.13.ascii17-Sep-2013 01:32 6.6M 
[   ]gfdl_initdata.eastatl.0117-Sep-2013 01:32 8.9M 
[   ]gfdl_initdata.eastatl.0217-Sep-2013 01:32 8.9M 
[   ]gfdl_initdata.eastatl.0317-Sep-2013 01:32 8.9M 
[   ]gfdl_initdata.eastatl.0417-Sep-2013 01:32 8.9M 
[   ]gfdl_initdata.eastatl.0517-Sep-2013 01:32 8.9M 
[   ]gfdl_initdata.eastatl.0617-Sep-2013 01:32 8.9M 
[   ]gfdl_initdata.eastatl.0717-Sep-2013 01:32 8.9M 
[   ]gfdl_initdata.eastatl.0817-Sep-2013 01:32 8.9M 
[   ]gfdl_initdata.eastatl.0917-Sep-2013 01:32 8.9M 
[   ]gfdl_initdata.eastatl.1017-Sep-2013 01:32 8.9M 
[   ]gfdl_initdata.eastatl.1117-Sep-2013 01:32 8.9M 
[   ]gfdl_initdata.eastatl.1217-Sep-2013 01:32 8.9M 
[   ]gfdl_albedo.fall17-Sep-2013 01:32 8.9M 
[   ]gfdl_albedo.spring17-Sep-2013 01:32 8.9M 
[   ]gfdl_albedo.summer17-Sep-2013 01:32 8.9M 
[   ]gfdl_albedo.winter17-Sep-2013 01:32 8.9M 
[   ]gfdl_height17-Sep-2013 01:32 8.9M 
[   ]gfdl_pctwat17-Sep-2013 01:33 8.9M 
[   ]gfdl_wetness17-Sep-2013 01:33 8.9M 
[   ]gfdl_znot17-Sep-2013 01:33 8.9M 
[   ]gfdl_initdata.gdem.united.0117-Sep-2013 01:32 14M 
[   ]gfdl_initdata.gdem.united.0217-Sep-2013 01:32 14M 
[   ]gfdl_initdata.gdem.united.0317-Sep-2013 01:32 14M 
[   ]gfdl_initdata.gdem.united.0417-Sep-2013 01:32 14M 
[   ]gfdl_initdata.gdem.united.0517-Sep-2013 01:32 14M 
[   ]gfdl_initdata.gdem.united.0617-Sep-2013 01:32 14M 
[   ]gfdl_initdata.gdem.united.0717-Sep-2013 01:32 14M 
[   ]gfdl_initdata.gdem.united.0817-Sep-2013 01:32 14M 
[   ]gfdl_initdata.gdem.united.0917-Sep-2013 01:32 14M 
[   ]gfdl_initdata.gdem.united.1017-Sep-2013 01:32 14M 
[   ]gfdl_initdata.gdem.united.1117-Sep-2013 01:33 14M 
[   ]gfdl_initdata.gdem.united.1217-Sep-2013 01:33 14M 
[   ]gfdl_initdata.gdem3.united.0517-Sep-2013 01:33 14M 
[   ]gfdl_initdata.gdem3.united.0617-Sep-2013 01:33 14M 
[   ]gfdl_initdata.gdem3.united.0717-Sep-2013 01:33 14M 
[   ]gfdl_initdata.gdem3.united.0817-Sep-2013 01:33 14M 
[   ]gfdl_initdata.gdem3.united.0917-Sep-2013 01:33 14M 
[   ]gfdl_initdata.gdem3.united.1017-Sep-2013 01:33 14M 
[   ]gfdl_initdata.gdem3.united.1117-Sep-2013 01:33 14M 
[   ]gfdl_initdata.gdem3.united.1217-Sep-2013 01:33 14M 
[   ]gfdl_initdata.levit.united.0517-Sep-2013 01:33 14M 
[   ]gfdl_initdata.levit.united.0617-Sep-2013 01:33 14M 
[   ]gfdl_initdata.levit.united.0717-Sep-2013 01:33 14M 
[   ]gfdl_initdata.levit.united.0817-Sep-2013 01:33 14M 
[   ]gfdl_initdata.levit.united.0917-Sep-2013 01:33 14M 
[   ]gfdl_initdata.levit.united.1017-Sep-2013 01:33 14M 
[   ]gfdl_initdata.levit.united.1117-Sep-2013 01:33 14M 
[   ]gfdl_initdata.levit.united.1217-Sep-2013 01:33 14M 
[   ]gfdl_initdata.united.0117-Sep-2013 01:33 14M 
[   ]gfdl_initdata.united.0217-Sep-2013 01:33 14M 
[   ]gfdl_initdata.united.0317-Sep-2013 01:33 14M 
[   ]gfdl_initdata.united.0417-Sep-2013 01:33 14M 
[   ]gfdl_initdata.united.0517-Sep-2013 01:33 14M 
[   ]gfdl_initdata.united.0617-Sep-2013 01:33 14M 
[   ]gfdl_initdata.united.0717-Sep-2013 01:33 14M 
[   ]gfdl_initdata.united.0817-Sep-2013 01:33 14M 
[   ]gfdl_initdata.united.0917-Sep-2013 01:33 14M 
[   ]gfdl_initdata.united.1017-Sep-2013 01:33 14M 
[   ]gfdl_initdata.united.1117-Sep-2013 01:33 14M 
[   ]gfdl_initdata.united.1217-Sep-2013 01:33 14M 
[   ]gfdl_raw_temp_salin.eastpac.0417-Sep-2013 01:33 17M 
[   ]gfdl_raw_temp_salin.eastpac.0517-Sep-2013 01:33 17M 
[   ]gfdl_raw_temp_salin.eastpac.0617-Sep-2013 01:33 17M 
[   ]gfdl_raw_temp_salin.eastpac.0717-Sep-2013 01:33 17M 
[   ]gfdl_raw_temp_salin.eastpac.0817-Sep-2013 01:33 17M 
[   ]gfdl_raw_temp_salin.eastpac.0917-Sep-2013 01:33 17M 
[   ]gfdl_raw_temp_salin.eastpac.1017-Sep-2013 01:33 17M 
[   ]gfdl_raw_temp_salin.eastpac.1117-Sep-2013 01:33 17M 
[   ]gfdl_raw_temp_salin.eastpac.1217-Sep-2013 01:33 17M 
[   ]gfdl_ocean_readu.dat.0117-Sep-2013 01:33 26M 
[   ]gfdl_ocean_readu.dat.0217-Sep-2013 01:33 26M 
[   ]gfdl_ocean_readu.dat.0317-Sep-2013 01:33 26M 
[   ]gfdl_ocean_readu.dat.0417-Sep-2013 01:33 26M 
[   ]gfdl_ocean_readu.dat.0517-Sep-2013 01:33 26M 
[   ]gfdl_ocean_readu.dat.0617-Sep-2013 01:33 26M 
[   ]gfdl_ocean_readu.dat.0717-Sep-2013 01:33 26M 
[   ]gfdl_ocean_readu.dat.0817-Sep-2013 01:33 26M 
[   ]gfdl_ocean_readu.dat.0917-Sep-2013 01:33 26M 
[   ]gfdl_ocean_readu.dat.1017-Sep-2013 01:33 26M 
[   ]gfdl_ocean_readu.dat.1117-Sep-2013 01:33 26M 
[   ]gfdl_ocean_readu.dat.1217-Sep-2013 01:33 26M 
[   ]gfdl_ocean_spinup_gdem3.dat.0117-Sep-2013 01:33 26M 
[   ]gfdl_ocean_spinup_gdem3.dat.0217-Sep-2013 01:33 26M 
[   ]gfdl_ocean_spinup_gdem3.dat.0317-Sep-2013 01:33 26M 
[   ]gfdl_ocean_spinup_gdem3.dat.0417-Sep-2013 01:33 26M 
[   ]gfdl_ocean_spinup_gdem3.dat.0517-Sep-2013 01:33 26M 
[   ]gfdl_ocean_spinup_gdem3.dat.0617-Sep-2013 01:33 26M 
[   ]gfdl_ocean_spinup_gdem3.dat.0717-Sep-2013 01:33 26M 
[   ]gfdl_ocean_spinup_gdem3.dat.0817-Sep-2013 01:33 26M 
[   ]gfdl_ocean_spinup_gdem3.dat.0917-Sep-2013 01:33 26M 
[   ]gfdl_ocean_spinup_gdem3.dat.1017-Sep-2013 01:33 26M 
[   ]gfdl_ocean_spinup_gdem3.dat.1117-Sep-2013 01:33 26M 
[   ]gfdl_ocean_spinup_gdem3.dat.1217-Sep-2013 01:33 26M